Location: Chèvreville
(49.1099°N, 2.8495°E)
Time: 22:59:13
(UTC+00:00)

Timation 2 Rocket - Pass Details

Date: 28 January 2023
Orbit: 905 x 1076 km, 70.0° (Epoch: 01 April)

Event Time Altitude Azimuth Distance (km) Brightness Sun altitude
Rises 18:50:15 0° 327° (NNW) 3,588 7.4 -21.5°
Reaches altitude 10° 18:52:45 10° 324° (NW) 2,659 6.7 -21.9°
Maximum altitude 18:58:48 59° 246° (WSW) 1,103 4.5 -22.9°
Drops below altitude 10° 19:05:04 10° 169° (S) 2,756 6.2 -23.9°
Sets 19:07:42 0° 166° (SSE) 3,728 6.9 -24.3°
